Weather in Bilovodsk

Ukraine / Luhansk Region     49°12′24″N   39°34′36″E
temp.,
°C
wind,
m/s
gust,
m/s
humid.,
%
clouds,
%
prec.,
mm/h
press.,
hPa
HPBL,
m
22 april, thu
thu2200:00+9s227191 0.0 101822
03:00+8sw368335 0.0 1019105
06:00+7sw36895 0.0 1021117
09:00+13sw34665 0.0 1022656
12:00+16sw344832 1.0 10211789
15:00+15s2458100 1.2 1021168
18:00+15s12588 0.1 1021215
21:00+11nw006497 0.3 102210
23 april, fri
fri2300:00+10sse116990 0.0 102110
03:00+9wsw117317 0.0 102110
06:00+9wsw117599 0.1 102117
09:00+13sw346897 0.1 1021434
12:00+17sw454818 0.1 10201954
15:00+15ssw355499 0.1 1019260
18:00+15s365427 0.0 1017320
21:00+13ssw61165100 0.1 1017355
24 april, sat
sat2400:00+10ssw41076100 0.1 1016250
03:00+9sw41073100 0.1 1015402
06:00+9ssw4107968 0.0 1014297
09:00+10sw71180100 0.5 10131453
12:00+7wnw588384 1.3 1015889
15:00+11wsw8105267 1.6 10141916
18:00+10wnw710547 0.1 10141340
21:00+6w71372100 0.1 1017608
25 april, sun
sun2500:00+4wsw611705 0.0 1018550
03:00+3w611825 0.0 1019465
06:00+5w6966100 0.0 10201164
09:00+7w68545 0.0 10201216
12:00+11wnw674093 0.0 10202290
15:00+12wnw5634100 0.0 10192441
18:00+11w3441100 0.0 10191613
21:00+7sw1149100 0.0 102010
26 april, mon
mon2600:00+6s2253100 0.0 101910
03:00+5ssw2257100 0.0 101920
06:00+5s2261100 0.0 101839
09:00+10sw23478 0.0 1017617
12:00+13ssw563792 0.0 10152263
15:00+14sw7941100 0.0 10142224
18:00+8w7107474 0.6 1015903
21:00+5w47795 0.6 1017353